Location: St. Louis
(38.6270°N, 90.1994°W)
Time: 23:49:32
(UTC-06:00)

Vanguard 1 - Pass Details

Date: 06 December 2021
Orbit: 652 x 3830 km, 34.2° (Epoch: 21 January)

Event Time Altitude Azimuth Distance (km) Brightness Sun altitude
Rises 06:44:32 0° 285° (WNW) 7,617 - -4.3°
Exits shadow 06:46:18 - 283° (WNW) 7,260 13.8 -4.0°
Reaches altitude 10° 06:51:43 10° 274° (W) 6,161 13.5 -3.1°
Maximum altitude 07:03:51 23° 232° (SW) 4,124 13.0 -1.0°
Drops below altitude 10° 07:12:20 10° 185° (S) 4,140 13.6 0.5°
Sets 07:15:58 0° 170° (S) 4,684 14.2 1.1°
